Location: Palmerston North
(40.3500°S, 175.6170°E)
Time: 02:12:24
(UTC+12:00)

MetOp-B - Pass Details

Date: 24 January 2019
Orbit: 819 x 822 km, 98.7° (Epoch: 19 April)

Event Time Altitude Azimuth Distance (km) Brightness Sun altitude
Rises 23:16:00 0° 168° (SSE) 3,389 8.0 -22.8°
Reaches altitude 10° 23:18:22 10° 169° (S) 2,449 7.2 -23.1°
Maximum altitude 23:23:48 78° 254° (WSW) 851 4.2 -23.6°
Enters shadow 23:25:50 39° 333° (NNW) 1,212 4.7 -23.8°
